EST,Max TemperatureF,Mean TemperatureF,Min TemperatureF,Max Dew PointF,MeanDew PointF,Min DewpointF,Max Humidity, Mean Humidity, Min Humidity, Max Sea Level PressureIn, Mean Sea Level PressureIn, Min Sea Level PressureIn, Max VisibilityMiles, Mean VisibilityMiles, Min VisibilityMiles, Max Wind SpeedMPH, Mean Wind SpeedMPH, Max Gust SpeedMPH,PrecipitationIn, CloudCover, Events, WindDirDegrees
2012-12-1,55,42,30,46,36,28,100,86,72,30.30,30.19,30.02,10,6,2,18,6,26,0.00,7,,126
2012-12-2,57,52,44,54,49,43,94,89,72,30.13,29.98,29.90,10,7,4,20,11,32,0.00,8,Rain,216
2012-12-3,59,46,32,57,48,32,100,96,88,30.16,30.07,29.91,10,3,0,17,4,24,0.00,7,Fog,158
2012-12-4,60,50,39,55,46,32,94,82,66,30.09,29.96,29.89,10,10,3,18,10,26,0.00,4,Rain,223
2012-12-5,39,34,30,32,24,19,80,68,52,30.41,30.31,30.10,10,10,10,16,7,22,0.00,5,,317
2012-12-6,39,32,24,32,29,23,93,83,75,30.37,30.16,29.97,10,10,10,15,4,18,0.00,2,,163
2012-12-7,42,40,37,41,38,32,100,90,81,29.96,29.93,29.89,10,5,1,6,2,,0.00,8,Rain,202
2012-12-8,42,38,33,41,37,30,100,93,87,30.18,29.95,29.83,10,7,2,10,5,20,0.00,8,Rain,350
2012-12-9,35,34,32,36,30,27,100,87,75,30.21,30.01,29.64,10,8,0,14,6,18,0.00,7,Snow,81
2012-12-10,39,36,30,39,32,23,100,88,69,29.86,29.67,29.58,10,8,0,13,4,17,0.00,8,Fog-Rain-Snow,301
2012-12-11,37,32,28,27,22,19,80,69,56,30.13,30.00,29.86,10,10,10,12,5,17,0.00,5,,249
2012-12-12,44,36,28,30,26,23,93,75,46,30.37,30.28,30.14,10,10,5,10,6,16,0.00,3,,211
2012-12-13,44,34,24,32,28,23,100,78,49,30.37,30.29,30.15,10,8,2,16,5,21,0.00,0,,195
2012-12-14,46,37,28,32,29,27,100,75,50,30.24,30.20,30.16,10,8,2,7,3,,0.00,0,,247
2012-12-15,44,35,26,41,35,27,100,89,71,30.20,30.02,29.73,10,6,0,16,5,22,0.00,7,Fog-Rain,119
2012-12-16,53,48,42,50,46,41,100,91,82,29.72,29.63,29.58,10,8,1,10,8,16,0.00,8,Rain,198
2012-12-17,46,42,39,43,36,32,87,78,61,29.74,29.67,29.61,10,10,10,7,3,,0.00,8,,285
2012-12-18,42,35,28,34,31,27,93,78,61,29.75,29.69,29.61,10,10,10,10,5,,0.00,5,,294
2012-12-19,42,34,26,34,32,27,100,88,70,30.15,30.00,29.75,10,6,2,10,1,,0.00,4,,267
2012-12-20,46,37,28,45,37,27,100,88,70,30.12,29.61,29.18,10,7,3,29,9,38,0.00,7,Rain,125
2012-12-21,37,34,30,34,29,25,100,87,75,29.76,29.40,29.19,10,5,0,25,11,41,0.00,8,Snow,296
2012-12-22,32,31,30,25,23,21,80,71,64,30.02,29.96,29.77,10,10,10,23,13,36,0.00,8,,292
2012-12-23,33,27,21,25,23,19,100,77,64,30.04,29.94,29.88,10,10,5,10,4,,0.00,5,,280
2012-12-24,32,26,19,28,24,18,100,84,69,30.03,29.95,29.85,10,9,2,13,3,,0.00,7,Snow,42
2012-12-25,32,28,24,30,26,23,100,86,75,30.31,30.20,29.97,10,10,2,12,5,17,0.00,7,Snow,322
2012-12-26,32,29,26,30,25,23,100,83,69,30.29,30.02,29.83,10,6,0,24,14,31,0.00,8,Snow,43
2012-12-27,33,24,12,32,25,10,100,87,74,30.14,30.01,29.84,10,7,1,13,9,20,0.00,6,Snow,329
2012-12-28,26,14,1,23,12,-2,100,88,74,30.16,30.09,29.97,10,8,0,5,0,,0.00,4,Fog-Snow,245
2012-12-29,32,28,23,28,25,19,100,88,74,30.00,29.87,29.79,10,6,1,14,4,26,0.00,8,Snow,313
2012-12-30,32,26,19,25,20,16,93,78,64,30.26,30.19,30.01,10,9,5,10,5,17,0.00,6,Snow,244
2012-12-31,35,28,21,28,22,16,86,75,69,30.16,29.99,29.89,10,9,7,13,8,22,0.00,5,,227